[[{"header":{"parameterUnit":"m.s-1","parameterCategory":1,"la1":30.2991,"la2":30.254,"lo1":-89.0895,"lo2":-89.0444,"dy":0.0017,"dx":0.0017,"nx":28,"ny":28,"refTime":"2024-05-05T09:00:00:Z","depth":0,"parameterNumber":2,"parameterNumberName":"U-component_of_WINDS"},"data":[0,0,0,0,0,0,0,0,0,0,0,0,0,0,0,0,0,0,0,0,0,0,0,0,0,0,0,0,0,0,0,0,0,0,0,0,0,0,0,0,0,0,0,0,0,0,0,0,0,0,0,0,0,0,0,0,0,0,-2.3852,-2.3852,0,-2.3886,-2.3887,-2.3887,-2.3872,-2.3871,-2.387,-2.3869,-2.3906,-2.3908,-2.3909,0,0,0,0,0,0,0,0,0,0,0,0,0,-2.3777,-2.3778,-2.3852,-2.3853,-2.3853,-2.3886,-2.3887,-2.3887,-2.3872,-2.3871,-2.387,-2.3869,-2.3905,-2.3907,-2.3909,0,0,0,0,0,0,0,0,0,0,0,0,0,-2.381,-2.3778,-2.3852,-2.3849,-2.3849,-2.3886,-2.3887,-2.3887,-2.3872,-2.3871,-2.3869,-2.3868,-2.3905,-2.3907,-2.391,-2.3952,0,0,-2.3918,-2.3919,0,0,0,0,0,0,0,0,-2.3808,-2.3813,-2.3849,-2.3849,-2.385,-2.3873,-2.3874,-2.3909,-2.3872,-2.3863,-2.3869,-2.3867,-2.3896,-2.3899,-2.3909,-2.3954,-2.3955,-2.3918,-2.392,-2.3921,-2.3922,0,0,0,0,0,0,0,-2.3806,-2.3811,-2.3866,-2.385,-2.385,-2.3847,-2.3851,-2.388,-2.3887,-2.3864,-2.3863,-2.3867,-2.3896,-2.3906,-2.391,-2.3956,-2.3918,-2.392,-2.3922,-2.3923,-2.4039,-2.404,0,0,0,0,0,0,-2.3803,-2.3809,-2.3865,-2.3867,-2.3825,-2.385,-2.3853,-2.3867,-2.3886,-2.3888,-2.3868,-2.3866,-2.3902,-2.3906,-2.3911,-2.3961,-2.3921,-2.3923,-2.3925,-2.4037,-2.4039,-2.4041,0,0,0,0,0,0,-2.3802,-2.3808,-2.3863,-2.3838,-2.3845,-2.3852,-2.3868,-2.3868,-2.3878,-2.3889,-2.3891,-2.3877,-2.3901,-2.3907,-2.3942,-2.3963,-2.3925,-2.3927,-2.4036,-2.4038,-2.404,-2.4063,0,0,0,0,0,0,-2.38,-2.3808,-2.3823,-2.3838,-2.3846,-2.3893,-2.3869,-2.387,-2.3883,-2.3881,-2.3898,-2.39,-2.3901,-2.3938,-2.3945,-2.3966,-2.3929,-2.4034,-2.4037,-2.4039,-2.4061,-2.4066,-2.4071,0,0,0,0,0,-2.3797,-2.3828,-2.3824,-2.383,-2.3865,-2.3894,-2.3899,-2.3899,-2.3885,-2.39,-2.3908,-2.3899,-2.396,-2.3942,-2.3949,-2.3971,-2.4032,-2.4036,-2.4039,-2.4058,-2.4065,-2.4071,0,0,0,0,0,0,-2.3815,-2.383,-2.3825,-2.3862,-2.3877,-2.3891,-2.3911,-2.3905,-2.3925,-2.3922,-2.3922,-2.3926,-2.3962,-2.3971,-2.395,-2.4014,-2.3994,-2.3999,-2.4006,-2.4013,-2.4018,-2.4014,-2.3931,0,0,0,0,0,-2.3824,-2.3845,-2.3858,-2.3889,-2.3897,-2.3903,-2.3916,-2.3915,-2.393,-2.3936,-2.3946,-2.3962,-2.3985,-2.4,-2.4021,-2.4063,-2.4067,-2.4082,-2.4087,-2.4091,-2.4094,-2.4118,-2.4125,-2.4052,-2.4052,-2.4051,0,0,-2.3841,-2.3852,-2.3866,-2.3894,-2.3905,-2.3928,-2.3908,-2.3933,-2.3951,-2.394,-2.3973,-2.3982,-2.4,-2.4039,-2.4056,-2.4046,-2.4116,-2.4095,-2.4098,-2.41,-2.4122,-2.4129,-2.4135,-2.4054,-2.4053,-2.4053,0,0,-2.3885,-2.3895,-2.3923,-2.3935,-2.3952,-2.3956,-2.3963,-2.3979,-2.3984,-2.4017,-2.401,-2.4032,-2.4071,-2.4084,-2.4096,-2.4147,-2.414,-2.4154,-2.4179,-2.4202,-2.4208,-2.4213,-2.423,-2.4237,-2.4158,-2.4158,-2.4158,0,-2.3904,-2.3938,-2.3938,-2.3964,-2.3976,-2.3969,-2.3997,-2.4009,-2.4033,-2.4042,-2.4032,-2.4081,-2.4093,-2.4134,-2.4147,-2.4157,-2.4165,-2.4151,-2.4207,-2.4212,-2.4217,-2.4233,-2.424,-2.416,-2.416,-2.416,-2.4159,0,-2.3961,-2.3985,-2.4005,-2.4028,-2.4043,-2.4071,-2.4076,-2.4092,-2.4091,-2.4096,-2.4131,-2.4146,-2.417,-2.418,-2.4179,-2.4223,-2.4216,-2.4206,-2.4186,-2.4225,-2.4241,-2.4247,-2.4162,-2.4162,-2.4161,-2.4161,0,0,-2.4014,-2.4038,-2.4046,-2.4056,-2.4076,-2.4094,-2.4123,-2.4146,-2.416,-2.4177,-2.4201,-2.4235,-2.4226,-2.424,-2.4241,-2.4261,-2.4301,-2.4249,-2.4249,-2.4257,-2.4349,-2.4355,-2.4363,-2.4297,-2.4298,-2.4299,-2.4347,0,-2.4059,-2.4105,-2.4108,-2.4151,-2.4173,-2.4167,-2.4192,-2.4207,-2.4214,-2.4235,-2.4243,-2.4267,-2.4254,-2.4262,-2.4282,-2.4291,-2.4319,-2.4288,-2.4319,-2.432,-2.4312,-2.4371,-2.4377,-2.4422,-2.4354,-2.4355,-2.4355,0,-2.4115,-2.4134,-2.418,-2.4197,-2.4206,-2.4228,-2.425,-2.427,-2.4289,-2.4292,-2.4309,-2.4307,-2.4337,-2.4318,-2.4359,-2.4338,-2.4351,-2.4358,-2.436,-2.4361,-2.4339,-2.4373,-2.4436,-2.4442,-2.4365,-2.4365,-2.4364,0,-2.4149,-2.4186,-2.4218,-2.4227,-2.4249,-2.4264,-2.4274,-2.4291,-2.4305,-2.4326,-2.4335,-2.4359,-2.4372,-2.4391,-2.4397,-2.4382,-2.4438,-2.4419,-2.4442,-2.4442,-2.4452,-2.4451,-2.4517,-2.4463,-2.4463,-2.4463,-2.4463,0,-2.4197,-2.4225,-2.4233,-2.4253,-2.4284,-2.4288,-2.4319,-2.4328,-2.4344,-2.4366,-2.4363,-2.4384,-2.4391,-2.4414,-2.4419,-2.4452,-2.4458,-2.4462,-2.4463,-2.4462,-2.4461,-2.4469,-2.4465,-2.4465,-2.4464,-2.4464,-2.4464,0,-2.4238,-2.4245,-2.428,-2.4297,-2.4303,-2.4325,-2.4341,-2.436,-2.4368,-2.4396,-2.4403,-2.4415,-2.4441,-2.4449,-2.4481,-2.4485,-2.4524,-2.4522,-2.4517,-2.4517,-2.4539,-2.4536,-2.4611,-2.4621,-2.4562,-2.4562,-2.4563,0,-2.4268,-2.4289,-2.4309,-2.4323,-2.4334,-2.4357,-2.4372,-2.4377,-2.4392,-2.4416,-2.4433,-2.4459,-2.448,-2.4523,-2.4535,-2.456,-2.4559,-2.4583,-2.4562,-2.456,-2.4558,-2.4556,-2.4558,-2.4586,-2.4587,-2.4587,-2.4588,0,-2.4319,-2.4322,-2.4342,-2.4365,-2.4383,-2.4401,-2.4419,-2.4431,-2.4439,-2.4457,-2.4484,-2.45,-2.4534,-2.456,-2.4586,-2.4597,-2.4594,-2.4595,-2.4601,-2.4599,-2.4595,-2.4597,-2.4526,-2.4592,-2.4592,-2.4592,-2.4591,-2.4591,-2.4355,-2.4373,-2.439,-2.4414,-2.4428,-2.4445,-2.4464,-2.4474,-2.4497,-2.4523,-2.4526,-2.4555,-2.4574,-2.4608,-2.4621,-2.4645,-2.4638,-2.4648,-2.465,-2.4652,-2.4653,-2.4593,-2.465,-2.465,-2.465,-2.465,-2.465,0,-2.4405,-2.4416,-2.4438,-2.4462,-2.4482,-2.4478,-2.4497,-2.4514,-2.4539,-2.4557,-2.4578,-2.461,-2.4636,-2.4651,-2.4677,-2.4693,-2.4692,-2.47,-2.4698,-2.4701,-2.4658,-2.4649,-2.47,-2.47,-2.47,-2.47,-2.47,-2.47,-2.4433,-2.4464,-2.447,-2.4509,-2.452,-2.4548,-2.456,-2.4576,-2.459,-2.4625,-2.4646,-2.4656,-2.4673,-2.4701,-2.4725,-2.4729,-2.4738,-2.4746,-2.4749,-2.4709,-2.4703,-2.4698,-2.469,-2.4748,-2.4748,-2.4789,-2.4789,-2.479]},{"header":{"parameterUnit":"m.s-1","parameterCategory":1,"la1":30.2991,"la2":30.254,"lo1":-89.0895,"lo2":-89.0444,"dy":0.0017,"dx":0.0017,"nx":28,"ny":28,"refTime":"2024-05-05T09:00:00:Z","depth":0,"parameterNumber":3,"parameterNumberName":"V-component_of_WINDS"},"data":[0,0,0,0,0,0,0,0,0,0,0,0,0,0,0,0,0,0,0,0,0,0,0,0,0,0,0,0,0,0,0,0,0,0,0,0,0,0,0,0,0,0,0,0,0,0,0,0,0,0,0,0,0,0,0,0,0,0,4.4847,4.4847,0,4.4863,4.4863,4.4863,4.4892,4.4893,4.4894,4.4894,4.4907,4.4907,4.4907,0,0,0,0,0,0,0,0,0,0,0,0,0,4.4842,4.4842,4.4847,4.4847,4.4848,4.4863,4.4863,4.4863,4.4892,4.4893,4.4894,4.4894,4.4907,4.4907,4.4907,0,0,0,0,0,0,0,0,0,0,0,0,0,4.4849,4.4842,4.4847,4.4864,4.4866,4.4863,4.4863,4.4863,4.4892,4.4893,4.4894,4.4895,4.4907,4.4907,4.4907,4.4887,0,0,4.4906,4.4905,0,0,0,0,0,0,0,0,4.4849,4.4849,4.4861,4.4863,4.4865,4.4877,4.4866,4.4871,4.4892,4.4882,4.4894,4.4895,4.4896,4.4897,4.4898,4.4888,4.4888,4.4906,4.4905,4.4905,4.4905,0,0,0,0,0,0,0,4.4848,4.4849,4.4853,4.4861,4.4864,4.487,4.4872,4.4867,4.4884,4.4883,4.4885,4.4887,4.4897,4.4898,4.4898,4.4889,4.4906,4.4905,4.4905,4.4905,4.4866,4.4865,0,0,0,0,0,0,4.4845,4.4848,4.4853,4.4854,4.4859,4.487,4.4872,4.4872,4.4884,4.4887,4.4886,4.4888,4.4898,4.4898,4.4899,4.4878,4.4905,4.4905,4.4905,4.4867,4.4866,4.4865,0,0,0,0,0,0,4.4845,4.4846,4.4852,4.4852,4.4853,4.4869,4.4868,4.4872,4.4872,4.4886,4.4889,4.4884,4.4899,4.4899,4.4891,4.4879,4.4905,4.4905,4.4868,4.4867,4.4866,4.4836,0,0,0,0,0,0,4.4845,4.4845,4.4838,4.4851,4.4853,4.4844,4.4868,4.4871,4.4872,4.4875,4.4885,4.4887,4.4899,4.4891,4.489,4.4879,4.4904,4.4869,4.4867,4.4866,4.4838,4.4834,4.4831,0,0,0,0,0,4.4845,4.4828,4.4838,4.4838,4.4845,4.4843,4.4844,4.4859,4.4871,4.4864,4.4874,4.4887,4.4881,4.489,4.4889,4.4878,4.487,4.4868,4.4866,4.484,4.4835,4.4831,0,0,0,0,0,0,4.4812,4.483,4.4841,4.4828,4.4834,4.4848,4.484,4.4853,4.4854,4.4857,4.4875,4.4876,4.4866,4.4871,4.4881,4.4861,4.4877,4.4875,4.4858,4.4853,4.4849,4.4848,4.4904,0,0,0,0,0,4.4804,4.4802,4.4817,4.4805,4.4808,4.4823,4.4823,4.4834,4.4841,4.4843,4.4851,4.4856,4.4856,4.4855,4.4855,4.484,4.4843,4.4832,4.4828,4.4825,4.4822,4.4817,4.4812,4.4859,4.4859,4.4859,0,0,4.4786,4.4795,4.4793,4.4799,4.4805,4.4802,4.4825,4.4821,4.4819,4.4842,4.4835,4.4842,4.4849,4.4837,4.4833,4.4841,4.4811,4.4822,4.4819,4.4819,4.4814,4.481,4.4806,4.4857,4.4858,4.4858,0,0,4.4752,4.4759,4.475,4.4756,4.4765,4.4776,4.4774,4.4787,4.4793,4.4786,4.4804,4.4802,4.48,4.4805,4.4807,4.4778,4.4791,4.4777,4.4757,4.4751,4.4747,4.4744,4.4735,4.4731,4.4775,4.4775,4.4775,0,4.4728,4.4726,4.4744,4.4739,4.4742,4.4764,4.4756,4.476,4.4768,4.477,4.4779,4.4779,4.4785,4.4776,4.4769,4.477,4.4768,4.4776,4.4747,4.4744,4.4741,4.4732,4.4728,4.4773,4.4774,4.4774,4.4774,0,4.4697,4.4695,4.4687,4.4696,4.4698,4.4691,4.4708,4.4707,4.4719,4.4729,4.4723,4.4731,4.4734,4.4733,4.4743,4.4726,4.4731,4.4743,4.476,4.4735,4.4727,4.4723,4.4771,4.4772,4.4772,4.4773,0,0,4.4642,4.4663,4.4659,4.4665,4.4678,4.4676,4.4671,4.4676,4.4675,4.4681,4.4677,4.4676,4.4689,4.4691,4.4702,4.4697,4.4675,4.471,4.4711,4.4704,4.4658,4.4649,4.4644,4.4684,4.4683,4.4683,4.4657,0,4.4611,4.4605,4.4621,4.461,4.461,4.4632,4.4628,4.4635,4.4645,4.4645,4.4655,4.4655,4.467,4.4672,4.4668,4.4679,4.4666,4.4681,4.4681,4.4681,4.4679,4.464,4.463,4.4606,4.4654,4.4654,4.4653,0,4.4574,4.458,4.4569,4.4585,4.4585,4.4581,4.4587,4.4587,4.4597,4.4604,4.4608,4.4622,4.4619,4.4635,4.4631,4.4641,4.4642,4.4647,4.4647,4.4647,4.4666,4.464,4.4598,4.4595,4.4649,4.4649,4.4649,0,4.4537,4.4541,4.4536,4.454,4.4557,4.4554,4.4561,4.4571,4.4574,4.4579,4.4581,4.4585,4.4588,4.4591,4.4606,4.4616,4.46,4.4618,4.4607,4.4606,4.4602,4.4602,4.456,4.4602,4.4602,4.4602,4.4602,0,4.4501,4.4494,4.452,4.4516,4.4509,4.4529,4.4521,4.453,4.454,4.4539,4.4558,4.4556,4.4577,4.4578,4.4589,4.4585,4.4585,4.4591,4.4595,4.459,4.4589,4.4591,4.4593,4.4601,4.4601,4.4601,4.4602,0,4.4457,4.4474,4.447,4.4488,4.4492,4.4486,4.4502,4.4499,4.4511,4.451,4.451,4.4528,4.4531,4.4547,4.4552,4.456,4.4551,4.4557,4.4548,4.4551,4.4539,4.454,4.4497,4.4492,4.4537,4.4536,4.4536,0,4.4434,4.4429,4.4447,4.4448,4.4455,4.4457,4.446,4.4479,4.4481,4.4493,4.449,4.4494,4.4498,4.4501,4.4514,4.4519,4.4526,4.451,4.4526,4.4523,4.4527,4.4527,4.4527,4.4507,4.4506,4.4506,4.4505,0,4.439,4.44,4.4403,4.4411,4.4414,4.4421,4.4428,4.4428,4.445,4.4451,4.4455,4.4458,4.4465,4.4469,4.4477,4.4484,4.4498,4.45,4.4498,4.4493,4.4489,4.4492,4.454,4.4501,4.4501,4.4502,4.4502,4.4502,4.4357,4.4354,4.4367,4.4371,4.438,4.4387,4.4386,4.4399,4.4402,4.441,4.4421,4.4423,4.4434,4.4446,4.4452,4.4454,4.4463,4.4459,4.4458,4.4457,4.4455,4.4488,4.4456,4.4456,4.4456,4.4456,4.4456,0,4.4315,4.4325,4.4329,4.434,4.4343,4.4358,4.4368,4.437,4.4372,4.4381,4.4386,4.4391,4.4395,4.441,4.4416,4.4415,4.4422,4.4416,4.4417,4.4418,4.4447,4.4449,4.4411,4.4411,4.4411,4.4411,4.4411,4.4411,4.4294,4.4291,4.4302,4.4304,4.4314,4.4317,4.4322,4.4329,4.4337,4.4341,4.4346,4.4356,4.4368,4.4375,4.4381,4.4385,4.4387,4.4379,4.4385,4.4412,4.4416,4.442,4.4422,4.4379,4.4379,4.4356,4.4356,4.4356]}]]